sat.trackr.live / text

‹ back to catalog

STARLINK-34926

NORAD 65194 · 2025-175W

PAYLOAD ACTIVE UNKNOWN

§ Identity

Operator
Country
US
Launch date
2025-08-14
Launch site
AFWTR
Launch vehicle
Mass (kg)
RCS (m²)

Purposes: comms

External: N2YO · Heavens-Above · Gunter

§ Orbital elements

Epoch: 2026-05-25T02:34:08.798592Z

Period
95.64 min
Inclination
97.4512°
Eccentricity
0.0002085
Mean motion
15.05663138 rev/d
Perigee alt
548.0 km
Apogee alt
550.9 km
Semi-major
6,927.6 km
B*
4.2078e-4
RAAN
17.6761°
Arg perigee
81.8780°
Mean anomaly
278.2683°
Rev number
4,411

§ Raw data

STARLINK-349261 65194U 25175W   26145.10704628  .00006020  00000+0  42078-3 0  99922 65194  97.4512  17.6761 0002085  81.8780 278.2683 15.05663138 44114

JSON: /api/v1/satellites/65194 · /tle

For live sub-satellite position, see the globe view (requires WebGL).

§ Visibility from observer

Set your observer location to see the next 7 days of passes ≥ 10°. The values pass through the URL so the page stays shareable.

No JS? Fill the form by hand. The geolocation button needs JavaScript.